Regional Weather Roundup
Issued by NWS

Home | Current Version | Previous Version | Graphics & Text | Print | Product List | Glossary On
Versions: 1 2 3 4 5 6 7 8 9 10 11 12 13 14 15 16 17 18 19 20 21 22 23 24 25 26 27 28 29 30 31 32 33 34 35 36 37 38 39 40 41 42 43 44 45 46 47 48 49 50
000
ASUS43 KDMX 302208
RWRIA

WEATHER ROUNDUP FOR IOWA
NATIONAL WEATHER SERVICE DES MOINES IA
500 PM CDT SAT JUL 30 2016

NOTE: "FAIR" INDICATES FEW OR NO CLOUDS BELOW 12,000 FEET WITH NO
SIGNIFICANT WEATHER AND/OR OBSTRUCTIONS TO VISIBILITY.

* - THESE STATIONS ARE NOT NWS STATIONS...THUS NOT UNDER NWS
QUALITY CONTROL.  THEY ALSO DO NOT REPORT WEATHER SUCH
AS PRECIPITATION OR FOG.

IAZ001>003-012>014-020>022-031>034-043>046-302300-
   NORTHWEST IOWA

CITY           SKY/WX    TMP DP  RH WIND       PRES   REMARKS
CARROLL *      MOSUNNY   81  63  54 CALM      29.98F HX  82
CHEROKEE *     PTSUNNY   81  60  49 S10       29.98S HX  81
DENISON *      MOSUNNY   79  63  57 S5G12     29.96F HX  80
LE MARS *      SUNNY     82  59  44 S9G15     29.97F HX  82
SHELDON *      MOSUNNY   79  61  53 S6        29.97F HX  80
SIOUX CITY     MOSUNNY   79  62  56 S9        29.96F HX  80
SPENCER        MOSUNNY   78  59  51 SE7       29.99S
STORM LAKE *   MOSUNNY   79  64  61 S8        29.99F HX  81
$$

IAZ055>058-069>071-079>083-090>094-302300-
   SOUTHWEST IOWA

CITY           SKY/WX    TMP DP  RH WIND       PRES   REMARKS
ATLANTIC *     SUNNY     81  64  57 S5        29.97F HX  82
CLARINDA *       N/A     82  66  57 MISG      30.00S HX  85
COUNCIL BLFS * SUNNY     79  64  61 SE7       29.98F HX  81
CRESTON *      SUNNY     79  64  61 CALM      30.00F HX  81
HARLAN  *      MOSUNNY   81  66  61 S5        30.01F HX  83
LAMONI         PTSUNNY   77  64  64 CALM      29.99F
RED OAK *      SUNNY     79  64  61 S5        29.97F HX  81
SHENANDOAH *   SUNNY     81  64  57 S7        29.98F HX  82
$$

IAZ047>049-059>061-072>074-084-302300-
   CENTRAL IOWA

CITY           SKY/WX    TMP DP  RH WIND       PRES   REMARKS
AMES           SUNNY     80  68  66 VRB5      29.97F HX  83
ANKENY *         N/A    N/A N/A N/A MISG        N/A
BOONE *        MOSUNNY   79  66  65 S6        29.97F HX  81
CHARITON *       N/A    N/A N/A N/A MISG        N/A
DES MOINES     PTSUNNY   82  64  54 SE6       29.96F HX  83
GRINNELL*      PTSUNNY   79  65  62 CALM      29.99F HX  80
KNOXVILLE *    MOSUNNY   79  66  65 SE3       29.97F HX  81
MARSHALLTOWN   PTSUNNY   81  66  60 S5        29.98S HX  83
NEWTON *       MOSUNNY   77  66  69 SE3       29.98F
PELLA *        SUNNY     80  65  62 CALM      29.98F HX  81
PERRY *          N/A     80  67  64 SE5       29.98F HX  83
$$

IAZ004>006-015-016-023>025-035-036-302300-
   NORTH CENTRAL IOWA

CITY           SKY/WX    TMP DP  RH WIND       PRES   REMARKS
ALGONA *       MOSUNNY   79  64  61 SW5       29.99F HX  81
ESTHERVILLE    MOSUNNY   76  64  66 SE8       29.99S
FORT DODGE *   PTSUNNY   77  64  65 E5        29.99F
MASON CITY     LGT RAIN  72  66  81 CALM      30.01S
FOREST CITY *  CLOUDY    73  64  73 E6        30.00F
IOWA FALLS *     N/A     81  66  59 SE5       30.00F HX  83
$$

IAZ007>011-017>019-026>030-037>042-050>054-066-302300-
   NORTHEAST IOWA

CITY           SKY/WX    TMP DP  RH WIND       PRES   REMARKS
CEDAR RAPIDS   MOSUNNY   81  69  67 N3        29.97F HX  84
CHARLES CITY * MOSUNNY   77  68  73 SE5       30.00F
CLINTON *      PTSUNNY   79  67  66 NE8       29.98S HX  81
DECORAH *      MOSUNNY   77  66  69 SE7       30.00S
DUBUQUE          N/A    N/A N/A N/A MISG      30.00S
MONTICELLO *   PTSUNNY   79  68  69 E7        29.98F HX  81
WATERLOO       MOSUNNY   80  64  58 E3        29.97F HX  82
$$

IAZ064-065-067-068-078-302300-
   EAST CENTRAL IOWA

CITY           SKY/WX    TMP DP  RH WIND       PRES   REMARKS
DAVENPORT      LGT RAIN  78  67  68 E7        29.98S HX  80
IOWA CITY      CLOUDY    82  65  56 CALM      29.97F HX  84
MT. PLEASANT * CLOUDY    81  69  67 CALM      29.97F HX  85
MUSCATINE *    MOSUNNY   81  66  61 CALM      29.96F HX  83
QUAD CITIES    MOSUNNY   82  65  56 CALM      29.96F HX  84
$$

IAZ062-063-075>077-085>089-095>099-302300-
   SOUTHEAST IOWA

CITY           SKY/WX    TMP DP  RH WIND       PRES   REMARKS
BURLINGTON     CLOUDY    78  70  76 CALM      29.97S HX  80
FAIRFIELD *    CLOUDY    81  66  61 N5        29.97F HX  83
KEOKUK *       SUNNY     81  68  65 SW7       29.97S HX  83
OSKALOOSA *      N/A     79  68  67 CALM      29.98F HX  82
CENTERVILLE *    N/A     81  64  57 CALM      30.00F HX  82
OTTUMWA        PTSUNNY   80  65  59 VRB3      29.97F HX  82
WASHINGTON *   CLOUDY    81  68  65 W6        29.98F HX  83
$$

ABBREVIATIONS USED IN REMARKS
   TC - TEMPERATURES IN CELSIUS
  WCI - WIND CHILL INDEX
   HX - HEAT INDEX
  VSB - VISIBILITY
$$





USA.gov is the U.S. government's official web portal to all federal, state and local government web resources and services.